Find OneWeb SL0044

NORAD ID: 45150 Int'l Des: 2020-008 Owner: ONEWEB Country: UK Constellation: oneweb operational
LEOCIRCULARPOLARONEWEB_TYPE

Live Position

Loading 3D Globe...

About OneWeb SL0044

Description loading...

Upcoming Passes

Passes for default location (London). Set your location on the main map for personalized predictions.

Altitude History

Loading altitude history...

Two-Line Element Set

1 45150U 20008V 26123.71571861 -.00001255 00000-0 -36337-2 0 9994
2 45150 87.8859 45.1129 0004874 80.8767 279.2912 13.10360432302654
Epoch: May 3, 2026 • Age: 8 hours

Current Status

Altitude 1223.6 km
Velocity 7.24 km/s
Sub-Earth Point 16.13°N, 17.62°W
Launch Date Feb 6, 2020
Age 6.2 years
Type internet

Technical Details

Classification Payload
Mass 148.00 kg
Dry Mass 140.00 kg
Total Mass 148.00 kg
Length 1.30 m
Diameter 1.00 m
Span 5.00 m
Shape Trapezoid+2 pan
Manufacturer ONEWUS
Bus Type ARROW
Phase Status In Orbit
Owner/State ONEWEB/UK

Most Searched